Regional Weather Roundup
Issued by NWS

Home | Current Version | Previous Version | Text Only | Print | Product List | Glossary Off
Versions: 1 2 3 4 5 6 7 8 9 10 11 12 13 14 15 16 17 18 19 20 21 22 23 24 25 26 27 28 29 30 31 32 33 34 35 36 37 38 39 40 41 42 43 44 45 46 47 48 49 50

000
ASUS45 KSLC 111510
RWRUT

UTAH REGIONAL WEATHER ROUNDUP
NATIONAL WEATHER SERVICE SALT LAKE CITY UT
900 AM MDT FRI JUL 11 2014

UTZ001>011-023>025-111600-

NORTHERN UTAH

CITY           SKY/WX    TMP DP  RH WIND       PRES   REMARKS
HILL AFB       CLOUDY    69  58  67 E14       30.12R
LOGAN          SUNNY     70  61  73 CALM      30.11R
OGDEN          CLOUDY    72  57  59 W5        30.10R
PROVO AIRPORT  PTSUNNY   66  61  82 SE7       30.15R
SALT LAKE CITY CLOUDY    72  60  66 SE8       30.09R
VERNAL         CLOUDY    72  58  61 CALM      30.17R
WENDOVER       CLOUDY    75  55  50 E10       30.08R
HEBER CITY     CLOUDY    63  55  77 CALM      30.19R

$$

UTZ012>022-026-027-111600-

SOUTHERN UTAH

CITY           SKY/WX    TMP DP  RH WIND       PRES   REMARKS
BRYCE CANYON   SUNNY     61  51  70 CALM      30.33R
CEDAR CITY     MOSUNNY   67  54  63 CALM      30.19R
MILFORD        MOSUNNY   69  59  70 SW16      30.15R
MOAB/CYNLANDS  SUNNY     75  60  59 SE5       30.10R
PRICE          PTSUNNY   71  52  50 CALM      30.20R
ST GEORGE      NOT AVBL

$$

REGIONAL REPORTS     COLORADO/ARIZONA

CITY           SKY/WX    TMP DP  RH WIND       PRES   REMARKS
CRAIG, CO      PTSUNNY   66  55  67 E12       30.23S
GRAND JUNCTION SUNNY     76  54  46 E10       30.14R
RIFLE          SUNNY     69  59  70 CALM      30.21S
MONTROSE       MOSUNNY   73  53  49 CALM      30.23R
CORTEZ         MOSUNNY   73  53  49 CALM      30.23R
PAGE, AZ       SUNNY     77  53  43 CALM      30.13R
GRAND CANYON   SUNNY     66  55  67 SW8       30.30R
KINGMAN        MOSUNNY   76  60  57 SE7       30.07R
FLAGSTAFF      SUNNY     67  48  50 SW3       30.33R

$$

REGIONAL REPORTS    NEVADA/IDAHO/WYOMING

CITY           SKY/WX    TMP DP  RH WIND       PRES   REMARKS
LAS VEGAS, NV  MOSUNNY   81  61  50 VRB3      29.95R
ELY            CLOUDY    63  53  70 S7        30.22R
ELKO           SUNNY     67  51  56 E3        30.11R
POCATELLO, ID  SUNNY     77  59  53 NW8       30.07R
BURLEY         MOSUNNY   75  57  53 S10       30.01R
EVANSTON, WY   CLOUDY    58  55  90 CALM      30.28R
ROCK SPRINGS   CLOUDY    64  54  69 S6        30.26R

$$



USA.gov is the U.S. government's official web portal to all federal, state and local government web resources and services.